TimeEDT,TemperatureF,Dew PointF,Humidity,Sea Level PressureIn,VisibilityMPH,Wind Direction,Wind SpeedMPH,Gust SpeedMPH,PrecipitationIn,Events,Conditions,WindDirDegrees,DateUTC
12:15 AM,46.4,42.8,87,30.33,10.0,Calm,Calm,-,N/A,,Clear,0,2013-04-28 04:15:00
12:35 AM,46.4,42.8,87,30.33,10.0,Calm,Calm,-,N/A,,Clear,0,2013-04-28 04:35:00
12:55 AM,46.4,44.6,93,30.32,10.0,Calm,Calm,-,N/A,,Clear,0,2013-04-28 04:55:00
1:15 AM,46.4,42.8,87,30.32,10.0,Calm,Calm,-,N/A,,Clear,0,2013-04-28 05:15:00
1:35 AM,42.8,41.0,93,30.32,10.0,Calm,Calm,-,N/A,,Clear,0,2013-04-28 05:35:00
1:55 AM,44.6,42.8,93,30.31,10.0,Calm,Calm,-,N/A,,Clear,0,2013-04-28 05:55:00
2:15 AM,44.6,42.8,93,30.31,10.0,Calm,Calm,-,N/A,,Clear,0,2013-04-28 06:15:00
2:35 AM,44.6,42.8,93,30.30,10.0,Calm,Calm,-,N/A,,Clear,0,2013-04-28 06:35:00
2:55 AM,42.8,41.0,93,30.29,10.0,Calm,Calm,-,N/A,,Clear,0,2013-04-28 06:55:00
3:15 AM,41.0,39.2,93,30.29,10.0,Calm,Calm,-,N/A,,Clear,0,2013-04-28 07:15:00
3:35 AM,42.8,41.0,93,30.28,7.0,Calm,Calm,-,N/A,,Clear,0,2013-04-28 07:35:00
3:55 AM,42.8,41.0,93,30.28,10.0,Calm,Calm,-,N/A,,Clear,0,2013-04-28 07:55:00
4:15 AM,41.0,39.2,93,30.28,10.0,Calm,Calm,-,N/A,,Clear,0,2013-04-28 08:15:00
4:35 AM,39.2,39.2,100,30.28,10.0,Calm,Calm,-,N/A,,Clear,0,2013-04-28 08:35:00
4:55 AM,41.0,39.2,93,30.28,10.0,Calm,Calm,-,N/A,,Clear,0,2013-04-28 08:55:00
5:15 AM,41.0,39.2,93,30.28,10.0,Calm,Calm,-,N/A,,Clear,0,2013-04-28 09:15:00
5:35 AM,42.8,39.2,87,30.28,10.0,Calm,Calm,-,N/A,,Clear,0,2013-04-28 09:35:00
5:55 AM,41.0,39.2,93,30.27,10.0,Calm,Calm,-,N/A,,Clear,0,2013-04-28 09:55:00
6:15 AM,41.0,39.2,93,30.27,10.0,Calm,Calm,-,N/A,,Clear,0,2013-04-28 10:15:00
6:35 AM,42.8,41.0,93,30.28,10.0,Calm,Calm,-,N/A,,Clear,0,2013-04-28 10:35:00
6:55 AM,42.8,41.0,93,30.28,10.0,Calm,Calm,-,N/A,,Clear,0,2013-04-28 10:55:00
7:15 AM,44.6,42.8,93,30.29,10.0,Calm,Calm,-,N/A,,Clear,0,2013-04-28 11:15:00
7:35 AM,46.4,42.8,87,30.31,10.0,Calm,Calm,-,N/A,,Clear,0,2013-04-28 11:35:00
7:55 AM,50.0,44.6,82,30.31,10.0,Calm,Calm,-,N/A,,Clear,0,2013-04-28 11:55:00
8:15 AM,51.8,46.4,82,30.31,10.0,Calm,Calm,-,N/A,,Clear,0,2013-04-28 12:15:00
8:35 AM,53.6,44.6,72,30.31,10.0,Calm,Calm,-,N/A,,Clear,0,2013-04-28 12:35:00
9:15 AM,57.2,46.4,67,30.30,10.0,SE,3.5,-,N/A,,Clear,130,2013-04-28 13:15:00
9:35 AM,60.8,46.4,59,30.30,10.0,Calm,Calm,-,N/A,,Clear,0,2013-04-28 13:35:00
9:55 AM,62.6,48.2,59,30.31,10.0,SSE,4.6,-,N/A,,Clear,150,2013-04-28 13:55:00
10:15 AM,62.6,46.4,55,30.29,10.0,East,6.9,-,N/A,,Clear,100,2013-04-28 14:15:00
10:35 AM,64.4,46.4,52,30.28,10.0,ESE,5.8,-,N/A,,Clear,120,2013-04-28 14:35:00
10:55 AM,64.4,46.4,52,30.29,10.0,East,10.4,-,N/A,,Clear,90,2013-04-28 14:55:00
11:15 AM,66.2,46.4,49,30.29,10.0,East,6.9,-,N/A,,Clear,80,2013-04-28 15:15:00
11:35 AM,66.2,48.2,52,30.29,10.0,SE,10.4,16.1,N/A,,Clear,130,2013-04-28 15:35:00
11:55 AM,66.2,46.4,49,30.28,10.0,SE,9.2,-,N/A,,Clear,130,2013-04-28 15:55:00
12:15 PM,66.2,46.4,49,30.28,10.0,SSE,8.1,-,N/A,,Clear,150,2013-04-28 16:15:00
12:35 PM,66.2,48.2,52,30.28,10.0,SE,9.2,16.1,N/A,,Scattered Clouds,140,2013-04-28 16:35:00
12:55 PM,66.2,48.2,52,30.27,10.0,ESE,3.5,18.4,N/A,,Scattered Clouds,120,2013-04-28 16:55:00
1:15 PM,66.2,48.2,52,30.26,10.0,ENE,11.5,-,N/A,,Scattered Clouds,70,2013-04-28 17:15:00
1:35 PM,66.2,48.2,52,30.27,10.0,East,11.5,-,N/A,,Clear,80,2013-04-28 17:35:00
1:55 PM,66.2,48.2,52,30.26,10.0,East,10.4,19.6,N/A,,Clear,100,2013-04-28 17:55:00
2:15 PM,66.2,48.2,52,30.26,10.0,ESE,9.2,-,N/A,,Clear,110,2013-04-28 18:15:00
2:55 PM,64.4,48.2,56,30.26,10.0,East,9.2,-,N/A,,Scattered Clouds,100,2013-04-28 18:55:00
3:15 PM,64.4,48.2,56,30.25,10.0,East,11.5,-,N/A,,Clear,90,2013-04-28 19:15:00
3:35 PM,64.4,48.2,56,30.24,10.0,East,11.5,-,N/A,,Clear,80,2013-04-28 19:35:00
3:55 PM,64.4,48.2,56,30.24,10.0,ESE,10.4,-,N/A,,Scattered Clouds,110,2013-04-28 19:55:00
4:15 PM,64.4,48.2,56,30.23,10.0,ESE,5.8,-,N/A,,Clear,110,2013-04-28 20:15:00
4:35 PM,64.4,48.2,56,30.21,10.0,East,11.5,-,N/A,,Clear,80,2013-04-28 20:35:00
4:55 PM,64.4,48.2,56,30.20,10.0,East,13.8,-,N/A,,Clear,80,2013-04-28 20:55:00
5:15 PM,64.4,48.2,56,30.20,10.0,East,10.4,19.6,N/A,,Clear,90,2013-04-28 21:15:00
5:35 PM,64.4,48.2,56,30.20,10.0,East,8.1,-,N/A,,Mostly Cloudy,80,2013-04-28 21:35:00
5:55 PM,62.6,48.2,59,30.20,10.0,East,9.2,-,N/A,,Overcast,90,2013-04-28 21:55:00
6:15 PM,62.6,50.0,63,30.20,10.0,East,6.9,-,N/A,,Overcast,90,2013-04-28 22:15:00
6:35 PM,62.6,50.0,63,30.19,10.0,East,5.8,-,N/A,,Overcast,90,2013-04-28 22:35:00
6:55 PM,62.6,50.0,63,30.18,10.0,East,6.9,-,N/A,,Overcast,90,2013-04-28 22:55:00
7:15 PM,60.8,50.0,68,30.19,10.0,East,3.5,-,N/A,,Overcast,80,2013-04-28 23:15:00
7:35 PM,60.8,50.0,68,30.19,10.0,East,4.6,-,N/A,,Overcast,90,2013-04-28 23:35:00
7:55 PM,60.8,50.0,68,30.18,10.0,Calm,Calm,-,N/A,,Overcast,0,2013-04-28 23:55:00
8:35 PM,60.8,51.8,72,30.18,10.0,ENE,3.5,-,N/A,Rain,Light Rain,70,2013-04-29 00:35:00
8:55 PM,59.0,53.6,82,30.18,10.0,ENE,3.5,-,N/A,Rain,Light Rain,70,2013-04-29 00:55:00
9:15 PM,57.2,53.6,88,30.19,10.0,East,3.5,-,N/A,Rain,Light Rain,80,2013-04-29 01:15:00
9:35 PM,57.2,53.6,88,30.19,10.0,East,3.5,-,0.01,Rain,Light Rain,80,2013-04-29 01:35:00
9:55 PM,57.2,55.4,94,30.18,10.0,Calm,Calm,-,0.01,Rain,Rain,0,2013-04-29 01:55:00
10:15 PM,57.2,55.4,94,30.18,10.0,Calm,Calm,-,0.02,Rain,Light Rain,0,2013-04-29 02:15:00
10:35 PM,57.2,55.4,94,30.18,10.0,Calm,Calm,-,0.02,,Light Drizzle,0,2013-04-29 02:35:00
10:55 PM,57.2,55.4,94,30.17,10.0,ESE,3.5,-,N/A,Rain,Light Rain,110,2013-04-29 02:55:00
11:15 PM,57.2,55.4,94,30.16,10.0,ESE,4.6,-,N/A,,Overcast,110,2013-04-29 03:15:00
11:35 PM,59.0,57.2,94,30.15,10.0,ESE,8.1,-,N/A,,Overcast,120,2013-04-29 03:35:00
11:55 PM,59.0,57.2,94,30.15,10.0,SE,6.9,-,N/A,,Overcast,130,2013-04-29 03:55:00